Weather History for EGLL - September, 2013

Change the Weather History Date:

Thursday, September 19, 2013

  Actual Average Record
Temperature  
Mean Temperature 54 °F -  
Max Temperature 63 °F 61 °F 76 °F (2014)
Min Temperature 44 °F 48 °F 42 °F (2012)
Degree Days  
Heating Degree Days 12    
Growing Degree Days 4 (Base 50)    
Moisture  
Dew Point 49 °F    
Average Humidity 82    
Maximum Humidity 94    
Minimum Humidity 65    
Precipitation  
Precipitation 0.01 in - - ()
Sea Level Pressure  
Sea Level Pressure 29.83 in    
Wind  
Wind Speed 8 mph ()    
Max Wind Speed 21 mph    
Max Gust Speed 34 mph    
Visibility 6.3 miles    
Events Rain    
Averages and records for this station are not official NWS values.
T = Trace of Precipitation, MM = Missing Value Source: Averaged Metar Reports

Daily Weather History Graph

Daily Weather History Graph

Search for Another Location

Airport or City:

Trip Planner

Search our weather history database for the weather conditions in past years. The results will help you decide how hot, cold, wet, or windy it might be!

Date:

Astronomy

Sep. 19, 2013 Rise Set
Actual Time 6:43 AM BST 7:06 PM BST
Civil Twilight 6:09 AM BST 7:40 PM BST
Nautical Twilight 5:30 AM BST 8:19 PM BST
Astronomical Twilight 4:48 AM BST 9:01 PM BST
Moon 6:48 PM BST (9/19) 6:40 AM BST (9/19)
Length of Visible Light 13h 30m
Length of Day
12h 23m
Full, 100% of the Moon is Illuminated
Sep 19
Full
Sep 19
Full
Sep 27
Last Quarter
Oct 5
New
Oct 12
First Quarter

Hourly Weather History & Observations

Time (BST) Temp. Windchill Dew Point Humidity Pressure Visibility Wind Dir Wind Speed Gust Speed Precip Events Conditions
12:20 AM 48.2 °F - 42.8 °F 82% 29.89 in - West 6.9 mph - N/A   Clear
12:50 AM 47 °F - 42 °F 79% 29.90 in 22 mi West 6.9 mph - -  
12:50 AM 48.2 °F - 42.8 °F 82% 29.89 in - West 6.9 mph - N/A   Clear
1:20 AM 48.2 °F - 42.8 °F 82% 29.89 in 6.2 mi West 6.9 mph - N/A   Unknown
1:50 AM 48.2 °F - 42.8 °F 82% 29.92 in 6.2 mi West 5.8 mph - N/A   Unknown
2:20 AM 46.4 °F 42.4 °F 42.8 °F 87% 29.92 in 6.2 mi West 8.1 mph - N/A   Unknown
2:50 AM 46.4 °F 42.4 °F 42.8 °F 87% 29.89 in - West 8.1 mph - N/A   Clear
3:20 AM 46.4 °F 42.9 °F 42.8 °F 87% 29.89 in - West 6.9 mph - N/A   Clear
3:50 AM 46.4 °F 42.4 °F 42.8 °F 87% 29.89 in - West 8.1 mph - N/A   Clear
4:20 AM 46.4 °F 43.5 °F 42.8 °F 87% 29.89 in - West 5.8 mph - N/A   Clear
4:50 AM 46.4 °F 44.3 °F 42.8 °F 87% 29.89 in - WSW 4.6 mph - N/A   Clear
5:20 AM 46.4 °F 44.3 °F 42.8 °F 87% 29.89 in 6.2 mi SSW 4.6 mph - N/A   Partly Cloudy
5:50 AM 46.4 °F 44.3 °F 42.8 °F 87% 29.89 in 6.2 mi WSW 4.6 mph - N/A   Partly Cloudy
6:20 AM 48.2 °F - 42.8 °F 82% 29.89 in 6.2 mi SW 5.8 mph - N/A   Partly Cloudy
6:50 AM 49 °F - 44 °F 77% 29.89 in 22 mi SW 6.9 mph - -  
6:50 AM 48.2 °F - 44.6 °F 87% 29.89 in 6.2 mi SW 6.9 mph - N/A   Partly Cloudy
7:20 AM 48.2 °F - 44.6 °F 87% 29.89 in 6.2 mi SW 5.8 mph - N/A   Mostly Cloudy
7:50 AM 50.0 °F - 44.6 °F 82% 29.89 in 6.2 mi SW 6.9 mph - N/A   Mostly Cloudy
8:20 AM 50.0 °F - 44.6 °F 82% 29.89 in 6.2 mi SSW 5.8 mph - N/A   Scattered Clouds
8:50 AM 51.8 °F - 46.4 °F 82% 29.86 in 6.2 mi SSW 8.1 mph - N/A   Scattered Clouds
9:20 AM 53.6 °F - 46.4 °F 77% 29.89 in 6.2 mi SW 11.5 mph - N/A   Scattered Clouds
9:50 AM 54 °F - 47 °F 70% 29.87 in 25 mi SW 10.4 mph - -   Scattered Clouds
9:50 AM 53.6 °F - 46.4 °F 77% 29.86 in 6.2 mi SW 10.4 mph - N/A   Scattered Clouds
10:20 AM 55.4 °F - 48.2 °F 77% 29.86 in 6.2 mi SSW 11.5 mph - N/A   Partly Cloudy
10:50 AM 59.0 °F - 50.0 °F 72% 29.83 in 6.2 mi SW 11.5 mph 23.0 mph N/A   Partly Cloudy
11:20 AM 60.8 °F - 50.0 °F 68% 29.83 in 6.2 mi SW 16.1 mph 27.6 mph N/A   Partly Cloudy
11:50 AM 60.8 °F - 50.0 °F 68% 29.80 in 6.2 mi SW 18.4 mph 34.5 mph N/A   Scattered Clouds
12:20 PM 60.8 °F - 50.0 °F 68% 29.80 in 6.2 mi SW 15.0 mph - N/A   Mostly Cloudy
12:50 PM 60 °F - 51 °F 65% 29.79 in 11 mi SSW 17.3 mph - - Rain Rain Showers
12:50 PM 60.8 °F - 50.0 °F 68% 29.77 in 5.6 mi SW 20.7 mph - N/A Rain Light Rain
1:20 PM 59.0 °F - 51.8 °F 77% 29.77 in 4.3 mi SW 15.0 mph - N/A Rain Light Rain
1:50 PM 57.2 °F - 53.6 °F 88% 29.77 in 5.0 mi SW 13.8 mph - N/A Rain Light Rain
2:20 PM 57.2 °F - 55.4 °F 94% 29.77 in 5.6 mi SW 12.7 mph - N/A Rain Light Rain
2:50 PM 57.2 °F - 55.4 °F 94% 29.74 in 5.6 mi SW 12.7 mph - N/A Rain Light Rain
3:20 PM 59.0 °F - 55.4 °F 88% 29.74 in 5.0 mi SW 11.5 mph - N/A Rain Light Rain
3:50 PM 59 °F - 57 °F 92% 29.75 in 4 mi SW 12.7 mph - - Rain Rain
3:50 PM 59.0 °F - 57.2 °F 94% 29.74 in 3.1 mi SW 11.5 mph - N/A Rain Light Rain
4:20 PM 59.0 °F - 57.2 °F 94% 29.74 in 3.7 mi SW 13.8 mph - N/A Rain Light Rain
4:50 PM 60.8 °F - 59.0 °F 94% 29.74 in 6.2 mi SW 11.5 mph - N/A   Mostly Cloudy
5:20 PM 60.8 °F - 59.0 °F 94% 29.74 in 6.2 mi WSW 11.5 mph - N/A   Mostly Cloudy
5:50 PM 64.4 °F - 59.0 °F 83% 29.74 in 6.2 mi WSW 10.4 mph - N/A   Partly Cloudy
6:20 PM 62.6 °F - 59.0 °F 88% 29.74 in 6.2 mi WSW 9.2 mph - N/A   Partly Cloudy
6:50 PM 61 °F - 58 °F 87% 29.76 in 25 mi WSW 8.1 mph - -  
6:50 PM 62.6 °F - 59.0 °F 88% 29.77 in 6.2 mi WSW 8.1 mph - N/A   Scattered Clouds
7:20 PM 62.6 °F - 59.0 °F 88% 29.77 in 6.2 mi West 6.9 mph - N/A   Partly Cloudy
7:50 PM 60.8 °F - 55.4 °F 82% 29.77 in 6.2 mi West 8.1 mph - N/A   Partly Cloudy
8:20 PM 60.8 °F - 51.8 °F 72% 29.80 in - WNW 9.2 mph - N/A   Clear
8:50 PM 59.0 °F - 51.8 °F 77% 29.80 in - WNW 6.9 mph - N/A   Clear
9:20 PM 57.2 °F - 50.0 °F 77% 29.83 in - West 8.1 mph - N/A   Clear
9:50 PM 54 °F - 49 °F 79% 29.85 in 19 mi WSW 8.1 mph - -  
9:50 PM 59.0 °F - 50.0 °F 72% 29.86 in - West 6.9 mph - N/A   Clear
10:20 PM 55.4 °F - 50.0 °F 82% 29.86 in - West 9.2 mph - N/A   Clear
10:50 PM 57.2 °F - 50.0 °F 77% 29.86 in - West 6.9 mph - N/A   Clear
11:20 PM 55.4 °F - 48.2 °F 77% 29.89 in - West 6.9 mph - N/A   Clear
11:50 PM 53.6 °F - 48.2 °F 82% 29.89 in - West 8.1 mph - N/A   Clear